EW0734 Weather Reports


time (UTC)temp
C
wind
direction
speed
KPH
gust
KPH
rain 1hr
cm
rain 24hr
cm
rain mn
cm
humidity
%
barometer
mb
20260505140526 23 90 1.6 3.2 0.00 0.00 0.00 50 1011.7
20260505124524 17 0.0 3.2 0.00 0.00 0.00 65 1012.1
20260505123525 17 0.0 3.2 0.00 0.00 0.00 66 1012.1
20260505122527 16 0.0 8.0 0.00 0.00 0.00 67 1012.1
20260505121526 16 0.0 3.2 0.00 0.00 0.00 68 1012.0
20260505120525 16 0.0 4.8 0.00 0.00 0.00 69 1011.9
20260505115544 15 0.0 1.6 0.00 0.00 0.00 71 1011.8
20260505114524 15 0.0 1.6 0.00 0.00 0.00 73 1011.7
20260505113526 14 0.0 0.0 0.00 0.00 0.00 76 1011.6
20260505112525 13 0.0 0.0 0.00 0.00 0.00 77 1011.6
20260505111526 13 0.0 0.0 0.00 0.00 0.00 77 1011.5
20260505110526 13 0.0 0.0 0.00 0.00 0.00 76 1011.4
20260505102026 -17 0.0 0.0 0.00 0.00 0.00
20260505101545 -17 0.0 0.0 0.00 0.00 0.00
20260505101023 -17 0.0 0.0 0.00 0.00 0.00
20260505100544 -17 0.0 0.0 0.00 0.00 0.00
20260505095525 -17 0.0 0.0 0.00 0.00 0.00
20260505095042 -17 0.0 0.0 0.00 0.00 0.00
20260505094521 -17 0.0 0.0 0.00 0.00 0.00
20260505094024 -17 0.0 0.0 0.00 0.00 0.00
20260505093024 -17 0.0 0.0 0.00 0.00 0.00
20260505092543 -17 0.0 0.0 0.00 0.00 0.00
20260505092022 -17 0.0 0.0 0.00 0.00 0.00
20260505091525 -17 0.0 0.0 0.00 0.00 0.00
20260505090524 -17 0.0 0.0 0.00 0.00 0.00
20260505090043 -17 0.0 0.0 0.00 0.00 0.00
20260505085520 -17 0.0 0.0 0.00 0.00 0.00
20260505085025 -17 0.0 0.0 0.00 0.00 0.00
20260505084024 -17 0.0 0.0 0.00 0.00 0.00
20260505083531 -17 0.0 0.0 0.00 0.00 0.00 71
20260505083148 13 0.0 0.0 0.00 0.00 0.00 71 1010.6
20260505082025 13 0.0 0.0 0.00 0.00 0.00 71 1010.6
20260505081025 13 0.0 1.6 0.00 0.00 0.00 72 1010.6
20260505080026 13 0.0 0.0 0.00 0.00 0.00 72 1010.5
20260505075025 13 0.0 0.0 0.00 0.00 0.00 72 1010.5
20260505074045 13 0.0 0.0 0.00 0.00 0.00 72 1010.5
20260505073025 13 0.0 0.0 0.00 0.00 0.00 72 1010.6
20260505072025 13 0.0 1.6 0.00 0.00 0.00 72 1010.5
20260505071025 13 0.0 0.0 0.00 0.00 0.00 72 1010.4
20260505070025 14 0.0 0.0 0.00 0.00 0.00 71 1010.3
20260505065026 14 0.0 1.6 0.00 0.00 0.00 70 1010.2
20260505064030 14 0.0 1.6 0.00 0.00 0.00 70 1010.1
20260505063046 14 0.0 1.6 0.00 0.00 0.00 69 1010.2
20260505062045 14 0.0 0.0 0.00 0.00 0.00 70 1010.1
20260505061026 14 0.0 0.0 0.00 0.00 0.00 70 1010.2
20260505060024 15 0.0 0.0 0.00 0.00 0.00 70 1010.1
20260505055025 15 0.0 1.6 0.00 0.00 0.00 69 1010.0
20260505054026 15 0.0 1.6 0.00 0.00 0.00 68 1009.9
20260505053025 15 0.0 1.6 0.00 0.00 0.00 68 1009.8
20260505052026 15 0.0 0.0 0.00 0.00 0.00 69 1009.8
20260505051025 15 0.0 1.6 0.00 0.00 0.00 69 1009.8
20260505041025 15 0.0 0.0 0.00 0.00 0.00 67 1009.6
20260505040031 15 0.0 1.6 0.00 0.00 0.00 66 1009.7
20260505035025 15 0.0 1.6 0.00 0.00 0.00 66 1009.7
20260505034045 15 0.0 1.6 0.00 0.00 0.00 65 1009.8
20260505033025 16 0.0 0.0 0.00 0.00 0.00 65 1009.8
20260505032025 16 0.0 0.0 0.00 0.00 0.00 64 1009.9
20260505031025 16 0.0 0.0 0.00 0.00 0.00 63 1009.8
20260505030025 16 0.0 0.0 0.00 0.00 0.00 62 1010.0
20260505025025 16 0.0 0.0 0.00 0.00 0.00 61 1010.0
20260505024025 17 0.0 0.0 0.00 0.00 0.00 60 1009.9
20260505023045 17 0.0 0.0 0.00 0.00 0.00 58 1009.8
20260505022025 17 0.0 0.0 0.00 0.00 0.00 57 1009.9
20260505021026 18 0.0 0.0 0.00 0.00 0.00 55 1009.8
20260505020025 18 0.0 0.0 0.00 0.00 0.00 54 1009.8
20260505015025 18 0.0 0.0 0.00 0.00 0.00 52 1009.8
20260505014025 19 0.0 0.0 0.00 0.00 0.00 52 1009.7
20260505013026 20 0.0 0.0 0.00 0.00 0.00 48 1009.7
20260505012025 20 0.0 1.6 0.00 0.00 0.00 47 1009.5
20260505011025 20 0.0 1.6 0.00 0.00 0.00 46 1009.5
20260505010025 21 0.0 0.0 0.00 0.00 0.00 46 1009.4
20260505005025 21 0.0 1.6 0.00 0.00 0.00 45 1009.3
20260505004024 21 0.0 1.6 0.00 0.00 0.00 43 1009.0
20260505003025 21 0.0 3.2 0.00 0.00 0.00 42 1009.0
20260505002025 22 0.0 6.4 0.00 0.00 0.00 41 1009.1
20260505001045 22 0.0 3.2 0.00 0.00 0.00 41 1009.0
20260505000026 22 0.0 3.2 0.00 0.00 0.00 41 1009.1
20260504235025 22 0.0 1.6 0.00 0.00 0.00 41 1009.0
20260504234025 22 0.0 1.6 0.00 0.00 0.00 41 1008.9
20260504233026 22 0.0 1.6 0.00 0.00 0.00 40 1008.8
20260504232024 23 0.0 3.2 0.00 0.00 0.00 39 1008.8
20260504231024 23 0.0 4.8 0.00 0.00 0.00 39 1008.7
20260504230025 23 0.0 4.8 0.00 0.00 0.00 39 1008.7
20260504225025 23 0.0 4.8 0.00 0.00 0.00 39 1008.7
20260504224024 23 0.0 6.4 0.00 0.00 0.00 38 1008.8
20260504223105 23 0.0 6.4 0.00 0.00 0.00 39 1008.7
20260504222046 23 0.0 3.2 0.00 0.00 0.00 38 1008.8
20260504221024 24 0.0 4.8 0.00 0.00 0.00 38 1008.8
20260504220024 24 90 1.6 9.7 0.00 0.00 0.00 37 1008.8
20260504215025 24 90 1.6 9.7 0.00 0.00 0.00 37 1008.8
20260504214024 25 45 1.6 8.0 0.00 0.00 0.00 36 1008.8
20260504213024 25 90 3.2 11.3 0.00 0.00 0.00 36 1008.9
20260504212025 25 0.0 4.8 0.00 0.00 0.00 36 1008.8
20260504211025 25 113 1.6 12.9 0.00 0.00 0.00 38 1008.9
20260504210025 24 90 1.6 8.0 0.00 0.00 0.00 35 1008.8
20260504205025 24 68 1.6 4.8 0.00 0.00 0.00 36 1008.9
20260504204024 25 90 1.6 6.4 0.00 0.00 0.00 35 1009.0
20260504203045 25 0.0 6.4 0.00 0.00 0.00 36 1009.1
20260504202025 25 113 1.6 4.8 0.00 0.00 0.00 35 1009.2
20260504201050 25 90 1.6 9.7 0.00 0.00 0.00 35 1009.4
20260504200024 25 90 1.6 4.8 0.00 0.00 0.00 35 1009.5
20260504195025 25 0.0 4.8 0.00 0.00 0.00 35 1009.4
20260504194025 26 113 1.6 6.4 0.00 0.00 0.00 33 1009.5
20260504193024 26 90 1.6 8.0 0.00 0.00 0.00 33 1009.5
20260504192024 26 90 1.6 9.7 0.00 0.00 0.00 31 1009.6
20260504191025 26 90 1.6 4.8 0.00 0.00 0.00 32 1009.8
20260504190024 26 90 1.6 14.5 0.00 0.00 0.00 32 1009.9
20260504185025 26 0.0 3.2 0.00 0.00 0.00 32 1010.1
20260504184024 26 203 1.6 3.2 0.00 0.00 0.00 34 1010.3
20260504183025 26 203 1.6 12.9 0.00 0.00 0.00 32 1010.4
20260504182025 26 203 1.6 6.4 0.00 0.00 0.00 32 1010.6
20260504181024 26 203 1.6 6.4 0.00 0.00 0.00 31 1010.9
20260504180024 26 203 1.6 4.8 0.00 0.00 0.00 33 1011.0
20260504175024 26 203 1.6 6.4 0.00 0.00 0.00 33 1011.1
20260504174025 25 0.0 4.8 0.00 0.00 0.00 33 1011.1
20260504173025 25 203 1.6 8.0 0.00 0.00 0.00 30 1011.3
20260504172024 25 0.0 4.8 0.00 0.00 0.00 35 1011.5
20260504171044 25 0.0 3.2 0.00 0.00 0.00 37 1011.6
20260504151024 22 0.0 4.8 0.00 0.00 0.00 39 1012.9